Temp
18 21 21 23 23 22 22 22 23 22 20 20 22 22 24 21 19 18 17 14 13 11 8 7 6 6 7 7 8 9 9 9 9 9 9 8 7 7 7 8 8 9 9 10
19 20 23 19 19 20 19 21 22 21 18 19 21 21 22 21 20 19 18 14 12 10 10 8 7 7 6 6 6 7 8 9 8 8 7 6 5 5 5 6 7 8 9 9
21 21 18 19 17 18 19 20 21 21 18 18 18 21 21 19 14 13 14 14 12 11 10 9 7 6 6 5 6 7 8 9 8 8 7 6 5 5 5 4 5 6 7 7
19 18 17 17 19 19 20 19 19 18 19 20 18 22 21 20 16 12 11 12 11 10 9 8 7 7 6 5 5 6 7 8 8 7 7 7 7 5 3 3 2 4 5 6
20 16 16 18 19 18 20 16 18 17 18 17 18 19 21 16 18 15 12 11 11 10 10 8 7 5 4 4 4 5 6 7 7 8 7 6 5 3 3 2 2 3 4 5
18 15 17 18 14 17 14 16 16 16 17 17 19 19 22 21 20 16 13 11 10 9 8 7 6 5 4 4 4 4 5 5 6 7 6 5 4 3 3 3 2 1 2 3
16 16 16 15 15 14 16 18 18 17 16 18 15 16 21 21 16 16 13 11 10 9 8 7 6 5 5 4 4 4 4 4 4 4 4 4 3 3 3 3 2 1 0 0
17 18 16 16 18 17 16 19 19 17 17 19 12 16 20 13 11 10 11 11 9 8 8 8 7 6 5 4 4 3 3 3 3 4 4 4 3 2 2 1 1 1 1 2
17 17 14 14 15 18 16 16 17 14 8 15 19 17 18 11 11 10 10 10 9 8 8 7 6 6 5 4 3 3 3 3 2 3 3 3 3 3 2 1 1 2 2 2
18 18 14 13 15 14 16 17 16 16 16 16 18 18 21 14 14 11 9 9 9 8 8 8 7 6 5 4 3 3 3 2 2 2 2 2 2 2 2 2 2 2 2 1
17 17 14 14 15 17 14 16 15 17 17 17 19 20 18 19 16 13 12 10 10 9 9 8 7 6 5 4 3 3 2 2 1 1 1 2 2 1 2 2 2 2 2 2
16 15 14 15 13 12 17 17 17 18 15 15 14 19 13 14 15 14 14 11 10 10 9 9 7 6 5 4 3 3 2 2 1 1 1 1 1 2 1 1 2 2 2 1
15 14 15 14 13 11 13 14 16 18 13 15 16 18 11 11 12 12 13 11 10 9 9 9 8 7 6 5 3 3 2 2 1 0 1 0 1 1 1 2 1 1 0 -0
17 15 17 18 19 17 14 14 14 16 16 17 16 18 14 13 13 13 11 11 10 9 8 8 8 7 6 5 4 3 3 2 1 1 0 0 0 1 1 1 0 -0 -1 -2
16 15 16 18 16 15 15 15 13 15 17 17 19 16 16 15 13 15 14 11 10 9 8 8 8 7 6 5 4 4 3 1 1 0 -0 0 1 1 0 -0 -1 -1 -2 -3
12 14 15 13 14 14 14 14 14 15 16 17 17 16 17 15 14 12 11 10 9 9 9 8 8 6 5 5 4 3 2 1 1 0 0 0 0 0 -0 -1 -2 -2 -3 -4
11 12 10 13 11 10 11 12 13 14 15 16 14 16 11 12 11 12 12 10 10 10 9 8 7 6 5 5 4 3 2 1 1 2 2 1 1 0 -1 -2 -2 -3 -4 -4
11 10 11 12 8 11 13 9 14 14 14 13 11 8 10 12 11 11 10 10 9 8 8 7 6 5 4 4 4 3 2 1 1 2 1 1 0 -0 -2 -2 -3 -4 -4 -5
7 9 8 9 10 12 7 8 10 11 13 10 12 10 8 6 8 9 7 7 9 7 7 6 6 5 4 4 4 3 2 1 1 2 2 1 0 -1 -2 -3 -4 -4 -5 -5
5 8 10 7 11 12 12 8 8 11 12 6 9 7 5 7 10 13 6 6 5 5 5 4 4 5 5 4 4 3 3 2 2 2 2 1 0 -1 -2 -4 -5 -5 -5 -6
7 6 10 8 10 9 8 6 7 10 12 5 7 5 5 8 10 8 6 5 5 5 4 4 4 4 5 5 4 4 3 3 4 3 2 1 -1 -2 -3 -5 -5 -6 -6 -7
8 8 8 8 9 10 5 5 10 9 4 5 5 5 5 6 5 5 5 5 3 3 2 3 3 3 4 4 4 3 2 4 3 2 1 -1 -2 -4 -5 -6 -6 -7 -8 -9
7 8 8 8 9 4 6 6 6 5 5 4 6 5 5 5 5 5 4 3 3 2 3 3 3 3 3 3 3 2 4 3 2 0 -1 -2 -4 -6 -6 -7 -7 -9 -9 -11
4 4 7 7 5 5 5 3 4 4 6 5 5 4 4 5 5 4 4 3 2 2 2 3 2 1 2 3 2 2 2 1 -0 -1 -3 -5 -6 -7 -8 -8 -9 -9 -10 -12
5 5 3 4 4 4 5 3 4 4 4 3 3 4 5 5 4 4 2 0 1 2 2 2 1 1 2 2 2 1 0 -1 -2 -4 -5 -6 -7 -8 -9 -9 -10 -11 -10 -11
4 4 6 6 6 7 7 6 4 4 4 3 3 1 0 1 2 0 0 1 1 0 1 0 1 1 2 1 1 0 -1 -2 -3 -6 -8 -9 -10 -10 -11 -12 -12 -11 -13 -14
Height
836 833 832 823 824 827 831 833 830 832 836 838 828 826 818 826 832 833 838 844 849 855 859 858 856 854 853 852 850 851 853 853 856 855 854 853 853 856 859 861 861 861 860 861
837 831 818 830 834 835 838 836 830 833 839 838 830 829 818 821 824 826 831 842 848 853 856 858 858 857 856 855 855 857 857 857 857 857 858 858 856 860 861 864 864 864 864 864
820 821 825 829 838 840 837 835 829 833 839 839 838 822 814 817 832 836 836 839 844 846 850 854 855 854 853 850 847 847 851 854 858 861 863 864 865 864 867 867 866 868 868 868
823 824 828 832 830 830 832 830 834 838 841 835 836 818 809 809 820 831 835 838 842 846 850 854 856 856 856 856 853 853 853 852 856 858 861 861 869 872 872 872 871 871 871 871
813 826 829 827 822 829 826 835 836 839 838 842 834 835 802 816 809 818 828 832 838 845 849 853 857 856 856 855 856 856 856 857 858 858 859 862 863 872 875 876 874 873 874 875
818 825 822 818 830 828 839 840 844 846 845 840 822 824 797 794 793 808 822 833 838 842 847 852 855 855 856 855 854 855 855 857 859 860 862 867 868 870 874 878 876 876 877 877
823 819 820 823 829 836 832 831 837 844 847 829 836 831 791 789 802 805 815 828 838 844 847 851 854 857 858 858 858 859 860 862 863 863 862 868 868 874 874 877 878 879 878 879
814 813 813 812 806 815 823 815 816 831 830 815 849 821 792 809 815 817 817 824 835 842 845 848 851 855 858 859 859 860 861 863 866 865 864 867 869 874 874 877 878 878 878 878
808 806 810 812 812 807 825 824 816 834 870 831 800 803 795 813 813 817 819 825 830 835 840 845 850 853 855 857 858 860 859 864 866 866 867 868 870 873 873 876 878 878 878 879
788 798 811 813 811 814 809 807 824 823 826 820 797 797 773 799 796 811 819 822 827 833 837 840 842 846 851 854 857 859 860 863 864 866 867 867 871 872 873 874 877 878 879 880
790 795 812 812 804 794 811 807 810 805 806 801 790 775 773 773 784 797 803 813 819 825 829 834 840 844 848 851 854 856 859 861 862 863 864 865 869 872 873 874 876 877 878 880
782 792 800 796 800 805 787 784 789 787 809 806 805 771 786 784 783 790 795 808 814 819 823 830 836 839 842 847 850 852 855 856 860 860 862 863 865 869 871 874 875 875 876 878
776 790 796 794 800 806 795 791 780 774 796 787 791 768 791 792 791 791 792 801 810 816 820 824 830 834 837 840 844 848 850 854 856 859 860 862 865 865 869 873 873 874 874 876
753 767 760 752 749 757 778 779 781 776 776 767 759 763 783 783 787 789 793 796 803 809 813 818 823 826 832 836 839 844 845 848 852 854 856 858 861 862 864 868 871 872 872 873
753 758 752 743 749 756 754 755 770 765 749 758 744 757 764 770 776 774 779 789 798 801 807 810 814 821 826 831 834 838 840 844 848 850 852 854 857 859 861 863 866 868 870 869
755 748 750 755 755 758 757 750 751 750 746 745 749 745 749 757 767 777 780 787 792 794 798 803 808 817 819 823 826 830 834 838 842 844 847 850 852 855 857 862 865 864 863 864
753 751 763 744 759 772 765 735 742 741 737 739 747 735 757 764 769 769 772 779 783 787 792 797 803 807 811 815 819 823 828 832 833 837 842 845 849 851 854 857 859 863 860 860
734 746 750 739 770 744 718 740 723 728 731 737 745 754 754 753 761 767 772 776 782 787 791 795 800 803 808 811 815 819 822 825 829 832 836 840 843 845 848 852 853 856 856 855
741 740 753 754 745 723 753 745 735 735 725 739 736 748 758 768 767 768 774 777 779 783 787 792 796 802 804 807 810 813 818 821 824 827 829 832 836 839 842 845 848 850 851 850
747 741 735 754 727 715 714 736 737 729 725 741 739 751 764 766 761 751 770 774 779 783 788 791 794 797 800 803 805 809 813 816 819 821 823 826 828 831 835 839 842 844 844 844
740 746 723 736 727 727 730 739 738 733 724 741 742 753 763 759 752 759 766 773 777 780 785 788 791 794 797 800 803 806 809 811 813 816 817 820 823 824 829 832 836 838 838 838
719 726 726 733 726 717 734 742 726 730 742 742 746 749 754 755 759 762 765 770 775 778 782 785 789 791 794 797 800 802 805 805 808 810 811 813 816 819 823 826 830 831 832 832
723 715 719 720 715 734 732 732 733 736 738 744 741 745 749 755 759 762 766 770 773 776 779 781 783 786 790 794 796 798 798 800 802 805 806 809 811 814 817 821 823 824 825 825
728 729 720 724 733 733 734 740 739 739 736 738 739 742 749 751 754 758 762 767 770 772 774 776 780 783 786 788 790 792 793 794 796 798 801 804 806 809 812 814 815 816 817 816
717 723 732 737 737 736 737 740 738 739 740 741 743 743 744 748 752 755 760 763 765 767 769 771 773 776 779 781 783 786 787 788 790 792 796 798 801 803 806 808 809 809 809 809
717 719 717 717 720 721 724 726 732 737 737 739 741 745 746 747 750 754 757 757 759 762 763 767 769 771 772 774 776 778 779 781 783 786 789 792 795 798 800 802 803 804 805 805
Wind_Speed
2 7 12 17 15 6 1 4 11 2 1 4 10 12 10 12 10 10 8 7 7 4 4 5 5 5 6 8 11 14 16 18 18 20 21 21 20 19 19 20 19 18 17 16
5 13 13 3 8 8 5 9 14 6 3 4 9 14 16 10 11 11 10 9 8 7 5 5 7 9 9 11 11 11 11 11 10 11 15 13 17 18 18 19 20 19 18 17
12 2 6 8 7 10 11 14 12 9 1 5 5 15 18 7 4 5 8 10 10 11 10 8 8 8 8 11 14 17 16 16 16 17 19 20 19 19 18 18 22 23 23 24
8 3 6 8 8 12 14 12 10 8 4 8 2 7 6 7 8 8 11 12 12 12 9 9 8 8 9 8 11 14 16 19 17 15 13 14 15 16 15 17 19 21 22 23
6 9 10 11 9 11 6 5 9 6 9 5 9 6 7 4 10 12 13 14 14 12 11 9 9 8 8 10 12 13 15 15 15 18 20 20 22 18 15 15 18 20 21 21
5 1 5 4 3 7 12 6 5 3 1 8 15 13 7 7 7 7 13 13 14 14 12 12 10 10 9 11 15 16 18 18 19 20 19 18 20 18 16 13 15 14 16 18
4 10 4 3 5 2 6 10 4 4 5 7 1 9 9 7 2 2 14 15 15 13 12 12 13 12 11 11 12 13 15 16 16 17 19 17 18 16 16 13 13 12 12 13
9 7 15 12 14 9 16 12 5 7 6 2 2 7 5 2 4 4 5 15 15 15 13 13 16 14 13 12 12 14 15 16 15 17 19 18 18 14 15 12 12 12 12 13
9 6 2 4 3 10 7 10 1 3 1 2 6 5 6 4 6 5 9 14 17 17 16 14 16 16 16 15 15 15 16 16 15 17 17 17 16 15 16 14 12 12 12 10
6 5 2 3 3 0 5 11 4 4 5 6 5 6 8 8 13 9 11 15 16 16 16 15 20 20 19 17 16 15 15 16 17 17 16 16 15 15 15 13 11 10 9 8
6 4 4 5 12 17 6 7 4 3 4 4 4 5 5 12 13 14 13 15 17 19 18 15 20 20 19 18 18 17 17 17 18 18 17 18 16 15 13 12 10 8 6 4
10 3 6 11 1 3 11 12 12 7 6 4 2 6 2 2 6 9 10 13 15 17 17 18 21 21 21 21 19 20 19 19 19 18 19 18 17 16 13 11 10 8 6 3
12 5 6 4 4 2 8 9 15 11 2 11 7 3 1 1 4 7 9 12 14 16 16 16 20 22 23 22 21 22 21 20 19 20 20 18 18 16 14 12 10 8 7 5
17 9 16 18 8 10 12 15 16 18 10 13 19 8 8 10 10 11 11 12 14 16 17 15 16 22 21 22 22 23 22 21 22 23 21 20 19 19 17 15 12 11 9 7
13 16 18 22 12 9 10 19 21 25 27 15 17 20 15 15 15 15 15 12 15 17 16 16 15 19 21 21 22 22 21 23 23 24 22 22 22 20 18 17 16 13 11 8
5 14 16 16 13 12 9 18 25 26 24 23 15 18 8 14 8 9 12 14 15 15 15 15 13 17 20 21 23 22 23 24 24 23 25 23 23 24 22 19 18 15 13 11
12 11 7 15 9 5 9 23 21 18 17 19 19 17 6 8 12 13 13 16 15 14 14 13 14 17 17 19 19 21 24 24 30 32 31 29 27 26 24 23 21 17 15 13
16 19 8 7 6 11 7 0 19 21 17 16 4 4 9 7 6 5 7 12 10 9 9 10 12 13 13 14 16 16 18 23 29 31 31 31 29 29 27 25 23 19 17 15
1 13 5 5 10 4 2 4 8 13 14 10 18 6 5 5 4 4 6 7 9 10 11 12 13 13 13 13 13 13 14 18 23 27 31 32 31 31 30 28 23 20 18 16
3 5 9 4 7 11 2 4 4 5 5 9 12 8 9 10 7 8 11 8 7 9 11 13 14 14 13 13 14 15 16 18 23 26 28 29 29 31 32 27 23 21 19 17
5 2 12 6 5 5 4 5 2 7 2 3 8 7 12 8 3 5 11 9 10 11 13 13 14 16 17 17 17 17 18 21 21 20 20 22 24 27 27 25 22 20 18 17
9 9 4 3 5 9 6 5 9 3 3 5 5 8 10 5 8 8 10 8 9 10 11 14 15 19 20 21 20 21 22 21 19 18 19 21 22 23 24 22 20 19 17 17
4 3 4 6 2 2 9 3 2 2 5 5 7 7 10 10 9 10 8 8 9 14 16 20 22 22 23 24 24 24 26 22 20 20 20 21 21 22 21 21 20 18 17 16
3 3 2 3 2 2 9 2 0 3 4 6 3 7 11 12 10 11 8 7 7 15 18 20 22 22 25 28 27 28 25 21 21 22 22 21 22 22 22 21 20 20 19 16
1 7 6 2 1 3 3 6 5 5 2 4 3 7 12 8 10 8 7 6 12 17 19 21 23 26 31 32 32 29 25 23 24 23 22 22 22 22 20 21 19 19 19 18
6 6 4 3 9 5 5 11 12 8 10 8 7 4 4 7 8 7 8 15 16 17 21 21 25 26 29 27 25 26 26 26 26 24 22 20 19 18 18 16 16 19 18 15
Wind_Direction
125 206 215 216 219 259 210 235 259 213 123 238 246 264 255 202 219 216 203 181 154 109 67 57 63 63 78 83 96 103 110 114 111 105 98 93 92 89 84 82 81 79 81 80
161 230 234 146 195 217 228 251 259 273 218 235 264 260 264 223 229 232 215 183 162 143 128 83 62 62 67 74 75 77 92 109 111 113 111 103 104 93 89 83 78 77 76 74
211 161 170 172 171 202 227 233 243 261 202 218 269 265 252 224 182 171 177 169 165 161 146 137 117 105 109 112 121 125 123 118 111 106 106 104 99 95 88 81 82 78 79 78
235 158 155 184 210 205 241 223 232 231 244 263 232 281 238 211 203 196 185 183 169 162 148 142 132 107 92 92 112 117 119 121 123 124 121 123 112 102 97 94 91 84 81 79
199 177 189 213 224 186 264 145 203 213 234 265 218 256 248 177 232 207 192 182 171 166 157 147 141 126 118 115 112 114 120 124 128 127 124 121 116 114 110 103 96 89 86 84
273 32 194 205 96 193 136 101 82 84 201 252 233 221 199 214 222 177 182 184 174 168 161 157 158 152 144 133 125 122 123 119 124 124 120 119 120 124 123 116 104 96 91 87
197 220 174 165 116 96 182 165 183 216 209 251 65 214 257 242 177 113 179 179 179 174 171 170 173 168 156 142 128 123 123 118 121 122 121 125 122 125 123 121 117 113 101 88
198 235 191 187 215 181 190 196 206 213 204 221 107 230 242 320 113 123 147 175 175 180 182 184 181 173 164 153 145 140 134 129 136 133 131 132 131 131 126 125 124 112 105 93
195 247 195 196 147 167 179 212 169 110 81 263 208 230 238 183 195 168 160 175 184 186 189 188 182 180 174 170 164 159 148 149 149 144 142 142 140 139 133 128 119 111 103 97
199 235 218 143 145 137 208 145 172 214 218 230 206 239 225 205 207 183 184 192 190 191 193 192 188 185 185 181 177 169 164 166 161 158 155 150 149 143 139 132 127 120 108 88
155 237 140 147 208 187 173 190 205 216 222 239 260 228 214 205 186 190 196 195 193 193 195 194 193 191 189 185 184 179 179 177 175 171 167 160 159 157 149 146 138 124 115 109
195 161 196 207 119 303 234 215 184 200 191 237 307 244 176 130 168 187 184 190 198 198 195 194 195 190 190 193 190 190 190 188 187 180 177 175 170 168 164 162 158 157 162 171
171 198 228 221 214 181 218 204 216 235 57 210 211 225 133 204 241 203 191 190 196 196 196 195 196 199 197 196 196 198 197 197 192 189 186 184 185 181 182 185 183 184 191 208
167 175 208 225 217 161 205 205 202 202 220 218 227 221 196 205 214 203 201 199 196 197 198 197 200 203 204 202 201 203 203 201 199 196 194 194 197 196 197 199 201 205 215 227
188 226 217 235 243 203 208 196 195 208 221 214 233 225 196 195 202 205 207 186 191 198 196 199 202 204 202 203 206 208 209 204 202 200 201 205 207 206 206 208 212 219 229 235
220 228 217 241 229 216 227 211 202 211 219 233 242 246 187 202 191 193 190 186 200 201 200 202 200 199 202 207 210 210 210 209 204 204 210 210 211 214 215 218 222 226 232 244
185 203 183 232 197 163 250 214 198 206 214 213 219 231 137 178 196 203 193 194 203 197 196 191 198 201 204 209 210 211 213 208 213 215 219 220 221 220 220 221 225 232 238 248
194 205 203 227 132 218 260 143 207 209 212 217 249 153 169 184 186 177 177 192 198 196 191 194 191 191 198 203 208 213 214 213 220 221 225 228 228 227 224 225 228 233 241 252
135 185 182 183 210 324 343 203 165 179 228 199 217 169 136 105 108 197 191 197 195 191 189 189 184 182 186 192 195 198 203 212 218 224 229 232 231 229 226 228 229 236 244 253
130 187 205 151 209 220 213 175 169 144 243 196 189 154 151 146 197 222 179 180 179 173 181 179 178 177 181 185 187 187 196 204 216 225 233 237 236 234 231 230 231 238 246 255
147 167 211 183 221 271 204 162 190 161 229 123 173 147 154 188 215 138 154 166 179 188 190 184 183 190 197 188 186 195 206 216 229 233 236 237 235 232 227 225 229 238 247 256
171 168 184 157 210 248 142 97 176 160 17 137 158 170 180 153 148 151 160 166 177 188 189 198 199 207 205 198 203 213 218 228 228 228 226 226 223 218 218 221 228 236 247 258
206 192 176 206 197 44 179 54 159 127 152 195 176 175 168 161 175 168 173 174 185 195 204 209 209 211 207 210 217 221 230 230 226 221 221 219 214 214 218 221 228 236 245 252
238 167 157 166 163 171 185 38 313 204 204 170 192 161 166 183 177 178 168 177 189 207 212 214 213 218 221 222 227 230 235 233 227 222 217 213 213 214 220 225 231 236 239 244
142 143 133 76 356 13 260 226 221 216 209 155 147 179 193 173 179 175 179 194 208 217 223 219 216 223 233 235 235 235 238 234 224 219 214 213 214 217 224 231 236 241 248 248
187 152 166 187 179 163 201 214 199 201 211 202 178 182 198 186 192 184 199 206 213 223 229 224 225 230 239 243 246 244 241 229 221 213 210 211 212 219 225 234 247 250 251 255